Regional Weather Roundup
Issued by NWS

Home | Current Version | Previous Version | Text Only | Print | Product List | Glossary Off
Versions: 1 2 3 4 5 6 7 8 9 10 11 12 13 14 15 16 17 18 19 20 21 22 23 24 25 26 27 28 29 30 31 32 33 34 35 36 37 38 39 40 41 42 43 44 45 46 47 48 49 50

000
ASUS43 KIND 200959
RWRIN

WEATHER ROUNDUP FOR INDIANA
NATIONAL WEATHER SERVICE INDIANAPOLIS IN
500 AM EST SAT JAN 20 2018

NOTE: "FAIR" INDICATES FEW OR NO CLOUDS BELOW 12,000 FEET WITH NO
SIGNIFICANT WEATHER AND/OR OBSTRUCTIONS TO VISIBILITY.

* - STATION DOES NOT REPORT WEATHER SUCH AS PRECIPITATION OR FOG.

+ - STATION NOT QUALITY CONTROLLED BY THE NATIONAL WEATHER SERVICE.
    USE DATA WITH CAUTION...ESPECIALLY DEWPOINT AND RELATIVE
    HUMIDITY OBSERVATIONS.

INZ001>003-010>013-019-020-201100-
NORTHWEST INDIANA

CITY           SKY/WX    TMP DP  RH WIND       PRES   REMARKS
KNOX *+        FAIR      32  28  86 SW14      29.88S WCI  22
MONTICELLO +   FAIR      32  24  73 SW13      29.91S WCI  22

$$

LMZ046-743>745-201100-
SOUTHERN LAKE MICHIGAN

STATION/POSITION TIME  TEMP    WIND        PRES    WAVE
                       AIR SEA DIR/SP/G            HT
                 (UTC) (F)     (DEG/KT/KT) (MB)    (FT)
BURNS HARBOR     0940   37     210/ 18/ 25 1011.5R
MICHIGAN CITY    0930   37     200/ 17/ 20   N/A

$$

INZ004-005-014>016-021>024-201100-
NORTH CENTRAL INDIANA

CITY           SKY/WX    TMP DP  RH WIND       PRES   REMARKS
GOSHEN         FAIR      32  24  72 SW15      29.86S WCI  22
PERU/GRISSOM   FAIR      31  26  80 SW16      29.91S WCI  20
SOUTH BEND     FAIR      31  25  78 SW15      29.86R WCI  20

$$

INZ006>009-017-018-025>027-201100-
NORTHEAST INDIANA

CITY           SKY/WX    TMP DP  RH WIND       PRES   REMARKS
FORT WAYNE     FAIR      33  24  69 SW15      29.91R WCI  23
KENDALLVILLE + FAIR      32  24  72 SW12      29.86S WCI  23

$$

INZ028-029-035-036-043>045-051>053-201100-
WEST CENTRAL INDIANA

CITY           SKY/WX    TMP DP  RH WIND       PRES   REMARKS
GREENCASTLE +  FAIR      32  21  64 SW6       29.99S WCI  26
LAFAYETTE      FAIR      32  24  72 SW9       29.94S WCI  24
TERRE HAUTE    FAIR      29  20  69 S8        30.01F WCI  21

$$

INZ030>032-037>040-046>048-054>057-064-065-201100-
CENTRAL INDIANA

CITY           SKY/WX    TMP DP  RH WIND       PRES   REMARKS
GREENWOOD *+   FAIR      36  23  59 SW9G18    30.00S WCI  29
INDIANAPOLIS   FAIR      33  23  66 SW15      29.98F WCI  23
-EAGLE CREEK   FAIR      34  22  61 SW12G20   29.97S WCI  25
MT COMFORT *+  FAIR      34  27  75 SW12G18   29.98S WCI  25
SHELBYVILLE    FAIR      32  21  64 SW10      30.00F WCI  24

$$

INZ033-034-041-042-049-050-058-059-201100-
EAST CENTRAL INDIANA

CITY           SKY/WX    TMP DP  RH WIND       PRES   REMARKS
MUNCIE         FAIR      35  22  58 SW15      29.94S WCI  25
RICHMOND +     FAIR      32  23  69 SW17      29.99F WCI  21

$$

INZ060-061-067>069-081>083-085>088-201100-
SOUTHWEST INDIANA

CITY           SKY/WX    TMP DP  RH WIND       PRES   REMARKS
EVANSVILLE     FAIR      30  19  63 SW8       30.09S WCI  22
HUNTINGBURG +  FAIR      33  19  56 S10       30.08S WCI  25

$$

INZ062-063-066-070>080-084-089>092-201100-
SOUTH CENTRAL AND SOUTHEAST INDIANA

CITY           SKY/WX    TMP DP  RH WIND       PRES   REMARKS
BLOOMINGTON    FAIR      35  20  54 SW17      30.02S WCI  25
FRENCH LICK *+ FAIR      36  14  41 SW10G20   30.06R WCI  28
MADISON *+     FAIR      34  23  64 SW9       30.08S WCI  26
SEYMOUR +      FAIR      36  19  51 SW9       30.06R WCI  29

$$





USA.gov is the U.S. government's official web portal to all federal, state and local government web resources and services.